[[{"header":{"parameterUnit":"m.s-1","parameterCategory":1,"la1":30.2991,"la2":30.254,"lo1":-89.0895,"lo2":-89.0444,"dy":0.0017,"dx":0.0017,"nx":28,"ny":28,"refTime":"2025-04-12T21:00:00:Z","depth":0,"parameterNumber":2,"parameterNumberName":"U-component_of_WINDS"},"data":[0,0,0,0,0,0,0,0,0,0,0,0,0,0,0,0,0,0,0,0,0,0,0,0,0,0,0,0,0,0,0,0,0,0,0,0,0,0,0,0,0,0,0,0,0,0,0,0,0,0,0,0,0,0,0,0,0,0,-3.648,-3.6481,0,-3.6549,-3.655,-3.6551,-3.645,-3.6447,-3.6443,-3.644,-3.651,-3.6515,-3.6521,0,0,0,0,0,0,0,0,0,0,0,0,0,-3.6259,-3.6264,-3.648,-3.6481,-3.6482,-3.6549,-3.655,-3.6551,-3.6451,-3.6446,-3.6442,-3.6438,-3.6509,-3.6515,-3.6521,0,0,0,0,0,0,0,0,0,0,0,0,0,-3.6344,-3.6265,-3.648,-3.644,-3.6437,-3.6549,-3.655,-3.6551,-3.6452,-3.6446,-3.6441,-3.6436,-3.6507,-3.6514,-3.6522,-3.6676,0,0,-3.6546,-3.6549,0,0,0,0,0,0,0,0,-3.634,-3.6353,-3.6445,-3.6443,-3.644,-3.6486,-3.6498,-3.6593,-3.6453,-3.6446,-3.644,-3.6433,-3.6506,-3.6514,-3.6539,-3.668,-3.6683,-3.6546,-3.6551,-3.6554,-3.6557,0,0,0,0,0,0,0,-3.6334,-3.6349,-3.6507,-3.6446,-3.6443,-3.6418,-3.6424,-3.6516,-3.6505,-3.6446,-3.6439,-3.6449,-3.6504,-3.6531,-3.6539,-3.6684,-3.6546,-3.6553,-3.6558,-3.6561,-3.6953,-3.6959,0,0,0,0,0,0,-3.6333,-3.6345,-3.6505,-3.6509,-3.6376,-3.6426,-3.6433,-3.6476,-3.6504,-3.6503,-3.6453,-3.6444,-3.6521,-3.6531,-3.6542,-3.6723,-3.6554,-3.6562,-3.6566,-3.6948,-3.6955,-3.6961,0,0,0,0,0,0,-3.6329,-3.6348,-3.6502,-3.6425,-3.6443,-3.6436,-3.6485,-3.648,-3.6507,-3.6509,-3.6507,-3.6483,-3.6517,-3.6531,-3.6643,-3.6724,-3.6565,-3.6572,-3.6941,-3.695,-3.6958,-3.7087,0,0,0,0,0,0,-3.6323,-3.6347,-3.6406,-3.6427,-3.6447,-3.6604,-3.649,-3.6486,-3.6521,-3.651,-3.6537,-3.6536,-3.6514,-3.6632,-3.6651,-3.6732,-3.6578,-3.6933,-3.6945,-3.6955,-3.7076,-3.7099,-3.712,0,0,0,0,0,-3.6315,-3.644,-3.641,-3.643,-3.6521,-3.6609,-3.662,-3.6592,-3.6528,-3.6587,-3.6588,-3.6535,-3.6712,-3.6645,-3.6665,-3.6749,-3.6928,-3.6942,-3.6954,-3.7066,-3.7095,-3.7119,0,0,0,0,0,0,-3.6429,-3.6442,-3.6409,-3.6545,-3.6576,-3.6591,-3.6665,-3.6624,-3.6674,-3.6661,-3.6624,-3.6631,-3.6751,-3.6761,-3.6686,-3.6899,-3.681,-3.6827,-3.6888,-3.6915,-3.6937,-3.6931,-3.6585,0,0,0,0,0,-3.647,-3.654,-3.6548,-3.6667,-3.6685,-3.6673,-3.671,-3.6685,-3.6716,-3.6729,-3.6738,-3.677,-3.6832,-3.6875,-3.6932,-3.7077,-3.7081,-3.7145,-3.7167,-3.7185,-3.72,-3.7276,-3.7304,-3.7003,-3.7003,-3.7003,0,0,-3.6556,-3.6571,-3.6618,-3.6691,-3.6712,-3.6785,-3.6684,-3.6766,-3.6819,-3.6741,-3.6847,-3.6856,-3.6889,-3.7018,-3.7075,-3.703,-3.7284,-3.7202,-3.7216,-3.7221,-3.7292,-3.732,-3.7346,-3.7012,-3.701,-3.7009,0,0,-3.6748,-3.6768,-3.6868,-3.6892,-3.6926,-3.6916,-3.6941,-3.6962,-3.6964,-3.7071,-3.7013,-3.7076,-3.7185,-3.721,-3.7238,-3.7439,-3.7392,-3.7459,-3.7573,-3.7647,-3.767,-3.7691,-3.7761,-3.7787,-3.7475,-3.7475,-3.7475,0,-3.6849,-3.6957,-3.6925,-3.701,-3.7043,-3.6976,-3.7077,-3.7101,-3.7153,-3.7177,-3.7126,-3.726,-3.7278,-3.7411,-3.746,-3.7485,-3.7511,-3.7455,-3.767,-3.769,-3.7709,-3.7775,-3.7802,-3.7483,-3.7482,-3.7481,-3.748,0,-3.7079,-3.7155,-3.7232,-3.7282,-3.7324,-3.7417,-3.7399,-3.7445,-3.7417,-3.7413,-3.7521,-3.754,-3.76,-3.763,-3.7604,-3.7759,-3.773,-3.7676,-3.7584,-3.7746,-3.7807,-3.7833,-3.7494,-3.7491,-3.7489,-3.7487,0,0,-3.7345,-3.7376,-3.7405,-3.7426,-3.7459,-3.7516,-3.7605,-3.7664,-3.7703,-3.7741,-3.7814,-3.7907,-3.7856,-3.7887,-3.7864,-3.7929,-3.8085,-3.7866,-3.7866,-3.7904,-3.8255,-3.8294,-3.8325,-3.8054,-3.8059,-3.8063,-3.8251,0,-3.7535,-3.7689,-3.7663,-3.7812,-3.788,-3.7818,-3.7895,-3.7923,-3.7922,-3.7979,-3.7977,-3.8043,-3.7972,-3.799,-3.8052,-3.8053,-3.8154,-3.8039,-3.812,-3.8124,-3.8112,-3.8357,-3.8399,-3.8576,-3.8275,-3.828,-3.8283,0,-3.7777,-3.7823,-3.7979,-3.7999,-3.8027,-3.8097,-3.8148,-3.8204,-3.8234,-3.8228,-3.8263,-3.8226,-3.8314,-3.8223,-3.8343,-3.8265,-3.8297,-3.8303,-3.8309,-3.8314,-3.8212,-3.8367,-3.8633,-3.8658,-3.8321,-3.8317,-3.8315,0,-3.7953,-3.8054,-3.816,-3.818,-3.8207,-3.8258,-3.8271,-3.8296,-3.8332,-3.8376,-3.8399,-3.8453,-3.8483,-3.8525,-3.8504,-3.844,-3.8628,-3.8535,-3.8624,-3.8625,-3.8665,-3.8662,-3.8937,-3.8689,-3.8689,-3.8688,-3.8688,0,-3.8167,-3.8264,-3.8239,-3.8304,-3.8411,-3.8379,-3.8486,-3.8492,-3.8514,-3.8579,-3.8528,-3.859,-3.8559,-3.8618,-3.8602,-3.8703,-3.8717,-3.8714,-3.8708,-3.8717,-3.8718,-3.8736,-3.8723,-3.8695,-3.8694,-3.8692,-3.8691,0,-3.838,-3.8367,-3.8478,-3.8494,-3.85,-3.8578,-3.8592,-3.8652,-3.8647,-3.8729,-3.8746,-3.8738,-3.8805,-3.8788,-3.8862,-3.8851,-3.8977,-3.8957,-3.8967,-3.8961,-3.905,-3.9041,-3.9345,-3.9383,-3.9113,-3.9115,-3.9117,0,-3.8516,-3.859,-3.8613,-3.8653,-3.867,-3.8735,-3.8771,-3.8743,-3.8783,-3.8822,-3.8878,-3.894,-3.8988,-3.9098,-3.9098,-3.9153,-3.9132,-3.9235,-3.914,-3.9147,-3.9131,-3.9126,-3.9132,-3.9254,-3.9257,-3.9259,-3.9261,0,-3.8759,-3.8749,-3.8803,-3.8856,-3.8901,-3.8941,-3.8977,-3.9012,-3.8986,-3.9034,-3.9101,-3.9139,-3.9213,-3.9275,-3.9325,-3.9338,-3.9296,-3.9292,-3.9314,-3.9323,-3.9325,-3.9323,-3.9016,-3.9284,-3.9282,-3.928,-3.9279,-3.9278,-3.8936,-3.8998,-3.9024,-3.9086,-3.911,-3.9144,-3.9201,-3.9203,-3.9258,-3.9316,-3.9297,-3.9373,-3.94,-3.9464,-3.9483,-3.9542,-3.9503,-3.9537,-3.9545,-3.9553,-3.9563,-3.9318,-3.9551,-3.9551,-3.955,-3.955,-3.9549,0,-3.9174,-3.9188,-3.9246,-3.9296,-3.9345,-3.9301,-3.9338,-3.9381,-3.9449,-3.9478,-3.9526,-3.9603,-3.9663,-3.9668,-3.9724,-3.977,-3.9751,-3.9785,-3.978,-3.9783,-3.9596,-3.957,-3.9799,-3.9799,-3.9799,-3.9799,-3.9799,-3.9799,-3.9304,-3.9405,-3.9398,-3.951,-3.9522,-3.9597,-3.9621,-3.9652,-3.9675,-3.9763,-3.9812,-3.9815,-3.9834,-3.989,-3.9943,-3.9942,-3.9964,-4.0005,-3.9997,-3.9822,-3.9797,-3.9773,-3.9748,-4.0011,-4.0011,-4.0179,-4.0181,-4.0182]},{"header":{"parameterUnit":"m.s-1","parameterCategory":1,"la1":30.2991,"la2":30.254,"lo1":-89.0895,"lo2":-89.0444,"dy":0.0017,"dx":0.0017,"nx":28,"ny":28,"refTime":"2025-04-12T21:00:00:Z","depth":0,"parameterNumber":3,"parameterNumberName":"V-component_of_WINDS"},"data":[0,0,0,0,0,0,0,0,0,0,0,0,0,0,0,0,0,0,0,0,0,0,0,0,0,0,0,0,0,0,0,0,0,0,0,0,0,0,0,0,0,0,0,0,0,0,0,0,0,0,0,0,0,0,0,0,0,0,-1.3187,-1.3187,0,-1.3195,-1.3195,-1.3195,-1.3175,-1.3175,-1.3174,-1.3173,-1.3181,-1.3181,-1.3182,0,0,0,0,0,0,0,0,0,0,0,0,0,-1.3155,-1.3155,-1.3187,-1.3187,-1.3188,-1.3195,-1.3195,-1.3195,-1.3175,-1.3174,-1.3174,-1.3173,-1.318,-1.3181,-1.3182,0,0,0,0,0,0,0,0,0,0,0,0,0,-1.3166,-1.3156,-1.3187,-1.3179,-1.3178,-1.3195,-1.3195,-1.3195,-1.3175,-1.3174,-1.3174,-1.3173,-1.318,-1.3181,-1.3182,-1.3208,0,0,-1.3186,-1.3186,0,0,0,0,0,0,0,0,-1.3166,-1.3167,-1.318,-1.3179,-1.3178,-1.3183,-1.3186,-1.3199,-1.3176,-1.3176,-1.3173,-1.3172,-1.3182,-1.3183,-1.3186,-1.3208,-1.3208,-1.3186,-1.3187,-1.3187,-1.3187,0,0,0,0,0,0,0,-1.3165,-1.3167,-1.319,-1.318,-1.3179,-1.3174,-1.3174,-1.3188,-1.3184,-1.3176,-1.3175,-1.3176,-1.3182,-1.3185,-1.3186,-1.3209,-1.3186,-1.3187,-1.3188,-1.3188,-1.325,-1.3251,0,0,0,0,0,0,-1.3165,-1.3166,-1.319,-1.3191,-1.317,-1.3175,-1.3176,-1.3183,-1.3184,-1.3183,-1.3177,-1.3175,-1.3184,-1.3185,-1.3187,-1.3216,-1.3187,-1.3188,-1.3189,-1.3249,-1.3251,-1.3252,0,0,0,0,0,0,-1.3165,-1.3168,-1.319,-1.3178,-1.3181,-1.3177,-1.3184,-1.3183,-1.3187,-1.3185,-1.3184,-1.3182,-1.3183,-1.3185,-1.3202,-1.3216,-1.3189,-1.319,-1.3248,-1.325,-1.3251,-1.3275,0,0,0,0,0,0,-1.3164,-1.3168,-1.3178,-1.3179,-1.3181,-1.3206,-1.3185,-1.3184,-1.3189,-1.3187,-1.3189,-1.3188,-1.3183,-1.3201,-1.3204,-1.3217,-1.3191,-1.3247,-1.3249,-1.3251,-1.3273,-1.3278,-1.3281,0,0,0,0,0,-1.3163,-1.3184,-1.3178,-1.3181,-1.3194,-1.3207,-1.3208,-1.3202,-1.319,-1.32,-1.3198,-1.3188,-1.3214,-1.3203,-1.3206,-1.322,-1.3246,-1.3248,-1.3251,-1.3272,-1.3277,-1.3281,0,0,0,0,0,0,-1.3186,-1.3184,-1.3178,-1.32,-1.3204,-1.3203,-1.3216,-1.3207,-1.3214,-1.3212,-1.3203,-1.3204,-1.3222,-1.3223,-1.321,-1.3244,-1.3228,-1.3231,-1.3243,-1.3248,-1.3252,-1.3251,-1.3192,0,0,0,0,0,-1.3193,-1.3204,-1.3202,-1.3222,-1.3225,-1.322,-1.3225,-1.322,-1.3223,-1.3224,-1.3224,-1.3227,-1.3236,-1.3242,-1.325,-1.3273,-1.3273,-1.3284,-1.3288,-1.3291,-1.3294,-1.3305,-1.331,-1.3259,-1.3259,-1.3259,0,0,-1.3209,-1.321,-1.3217,-1.3227,-1.3229,-1.324,-1.3221,-1.3234,-1.3242,-1.3226,-1.3242,-1.3242,-1.3245,-1.3265,-1.3274,-1.3266,-1.3308,-1.3294,-1.3296,-1.3297,-1.3308,-1.3313,-1.3317,-1.326,-1.326,-1.326,0,0,-1.3244,-1.3246,-1.3262,-1.3264,-1.3267,-1.3264,-1.3268,-1.3269,-1.3268,-1.3284,-1.3272,-1.3281,-1.3297,-1.3299,-1.3302,-1.3336,-1.3327,-1.3339,-1.3359,-1.337,-1.3374,-1.3378,-1.339,-1.3394,-1.3341,-1.3342,-1.3342,0,-1.3263,-1.328,-1.3272,-1.3285,-1.3289,-1.3275,-1.3291,-1.3294,-1.3299,-1.3302,-1.3293,-1.3312,-1.3313,-1.3333,-1.3341,-1.3344,-1.3348,-1.3339,-1.3374,-1.3378,-1.3381,-1.3392,-1.3397,-1.3343,-1.3343,-1.3343,-1.3343,0,-1.3303,-1.3314,-1.3327,-1.3333,-1.3338,-1.3353,-1.3347,-1.3353,-1.3347,-1.3344,-1.336,-1.3361,-1.3368,-1.3372,-1.3366,-1.3391,-1.3386,-1.3376,-1.336,-1.3388,-1.3398,-1.3402,-1.3345,-1.3345,-1.3344,-1.3344,0,0,-1.3354,-1.3353,-1.3358,-1.336,-1.3362,-1.337,-1.3383,-1.339,-1.3396,-1.34,-1.3411,-1.3423,-1.3414,-1.3417,-1.3411,-1.3421,-1.3447,-1.3409,-1.3409,-1.3416,-1.3474,-1.3482,-1.3487,-1.3441,-1.3442,-1.3442,-1.3474,0,-1.3387,-1.3411,-1.3403,-1.3426,-1.3436,-1.3422,-1.3434,-1.3436,-1.3433,-1.3441,-1.3438,-1.3447,-1.3434,-1.3436,-1.3445,-1.3442,-1.3459,-1.344,-1.345,-1.3451,-1.345,-1.3492,-1.3501,-1.353,-1.3478,-1.3478,-1.3479,0,-1.343,-1.3435,-1.346,-1.3458,-1.3462,-1.3473,-1.3478,-1.3486,-1.3487,-1.3485,-1.3488,-1.348,-1.3492,-1.3476,-1.3493,-1.348,-1.3484,-1.3483,-1.3484,-1.3485,-1.3467,-1.3494,-1.354,-1.3544,-1.3485,-1.3485,-1.3484,0,-1.3464,-1.3477,-1.3493,-1.3495,-1.3494,-1.3501,-1.3501,-1.3502,-1.3506,-1.3511,-1.3513,-1.3519,-1.3523,-1.3527,-1.352,-1.3509,-1.3538,-1.3521,-1.3536,-1.3536,-1.3543,-1.3543,-1.359,-1.3545,-1.3545,-1.3545,-1.3545,0,-1.3502,-1.3518,-1.3508,-1.3517,-1.3534,-1.3524,-1.3541,-1.3539,-1.354,-1.3549,-1.3537,-1.3545,-1.3536,-1.3543,-1.3538,-1.3552,-1.3554,-1.3552,-1.355,-1.3553,-1.3553,-1.3555,-1.3553,-1.3547,-1.3546,-1.3546,-1.3546,0,-1.3543,-1.3537,-1.3553,-1.3551,-1.355,-1.3563,-1.356,-1.3569,-1.3565,-1.3576,-1.3578,-1.3572,-1.358,-1.3574,-1.3582,-1.3578,-1.3597,-1.3593,-1.3597,-1.3595,-1.361,-1.3609,-1.3661,-1.3667,-1.3619,-1.3619,-1.362,0,-1.3568,-1.358,-1.3578,-1.3583,-1.3583,-1.3592,-1.3596,-1.3587,-1.3591,-1.3593,-1.3602,-1.3608,-1.3614,-1.3627,-1.3623,-1.3629,-1.3625,-1.3642,-1.3625,-1.3628,-1.3625,-1.3624,-1.3625,-1.3646,-1.3646,-1.3647,-1.3647,0,-1.3613,-1.3609,-1.3616,-1.3621,-1.3626,-1.3629,-1.3632,-1.3637,-1.3627,-1.3633,-1.3641,-1.3645,-1.3652,-1.3659,-1.3664,-1.3663,-1.3654,-1.3652,-1.3656,-1.3659,-1.3661,-1.366,-1.3606,-1.3651,-1.3651,-1.3651,-1.365,-1.365,-1.3647,-1.3656,-1.3656,-1.3663,-1.3664,-1.3666,-1.3674,-1.367,-1.3677,-1.3682,-1.3676,-1.3686,-1.3686,-1.3691,-1.3691,-1.3698,-1.3691,-1.3696,-1.3698,-1.3699,-1.3701,-1.366,-1.3699,-1.3699,-1.3699,-1.3699,-1.3699,0,-1.3691,-1.369,-1.3696,-1.37,-1.3705,-1.3695,-1.3697,-1.3702,-1.3711,-1.3712,-1.3717,-1.3725,-1.3732,-1.3728,-1.3733,-1.3739,-1.3735,-1.3741,-1.3741,-1.3741,-1.3708,-1.3704,-1.3745,-1.3745,-1.3745,-1.3745,-1.3745,-1.3745,-1.3715,-1.3729,-1.3725,-1.3739,-1.3738,-1.3747,-1.3748,-1.375,-1.3751,-1.3761,-1.3766,-1.3763,-1.3762,-1.3767,-1.3772,-1.3771,-1.3773,-1.3781,-1.3778,-1.3748,-1.3743,-1.3739,-1.3735,-1.3782,-1.3782,-1.3811,-1.3811,-1.3811]}]]